Hourly Weather Roundup
Issued by NWS Central Illinois

Home | Current Version | Previous Version | Text Only | Print | Product List | Glossary On
Versions: 1 2 3 4 5 6 7 8 9 10 11 12 13 14 15 16 17 18 19 20 21 22 23 24 25 26 27 28 29 30 31 32 33 34 35 36 37 38 39 40 41 42 43 44 45 46 47 48 49 50
000
NZUS43 KILX 020210
HWRILX

AREA WEATHER ROUNDUP
NATIONAL WEATHER SERVICE, LINCOLN IL
900 PM CDT WED OCT 01 2014


CITY           SKY/WX    TMP DP  RH WIND       PRES   REMARKS
BLOOMINGTON    LGT RAIN  68  64  86 S7          N/A
CHAMPAIGN      NOT AVBL
DECATUR        CLOUDY    73  60  63 SE6       29.90R
FLORA          CLEAR     70  59  68 SE6       29.91R
GALESBURG      CLOUDY    67  64  89 S8        29.83R THUNDER
JACKSONVILLE   TSTM      68  67  95 E9        29.86F
LACON          LGT RAIN  67  63  85 S7        29.84S
LAWRENCEVILLE  CLEAR     68  58  70 SE7       29.91S
LITCHFIELD     CLOUDY    75  61  62 SE7       29.87R
$$


CITY           SKY/WX    TMP DP  RH WIND       PRES   REMARKS
LINCOLN        LGT RAIN  68  66  92 N3        29.87R
MACOMB         CLOUDY    67  65  93 SE9       29.85S
MATTOON        CLOUDY    71  57  61 SE7       29.91R
MT CARMEL AP   CLEAR     70  59  68 SE6       29.91R
OLNEY-NOBLE AP PTCLDY    63  59  88 CALM      29.91R
PARIS          CLOUDY    69  63  79 E3        29.93R
PEORIA         LGT RAIN  71  64  78 S13       29.85F
PONTIAC        CLOUDY    72  59  64 SE5       29.89R
RANTOUL        CLOUDY    71  60  66 SE8       29.92R
ROBINSON       PTCLDY    68  60  75 S3        29.92R
SPRINGFIELD    RAIN      69  66  90 SE8       29.89R FOG
TAYLORVILLE    RAIN      70  63  78 SE7       29.88S
$$

...REGIONAL REPORTS...


CITY           SKY/WX    TMP DP  RH WIND       PRES   REMARKS
CHICAGO O`HARE MOCLDY    66  53  63 SE10      29.90S
KANKAKEE       CLOUDY    66  55  67 SE10      29.91S
MOLINE         PTCLDY    60  58  92 CALM      29.84R FOG
MOUNT VERNON   NOT AVBL
PITTSFIELD     LGT RAIN  67  64  93 CALM      29.88R
QUINCY         LGT RAIN  65  63  93 S7        29.85R
ROCKFORD       NOT AVBL
$$


CITY           SKY/WX    TMP DP  RH WIND       PRES   REMARKS
BURLINGTON     LGT RAIN  68  65  90 SE14      29.82R
CEDAR RAPIDS   CLOUDY    64  63  94 S8        29.82R
DES MOINES     PTCLDY    66  63  90 SE6       29.80R FOG
KIRKSVILLE     RAIN      67  66  97 S5        29.85R FOG
OTTUMWA        CLOUDY    66  63  90 S6        29.82R
ST LOUIS       CLOUDY    83  64  52 SE9       29.84R HX  84
$$


CITY           SKY/WX    TMP DP  RH WIND       PRES   REMARKS
TERRE HAUTE    MOCLDY    69  61  75 SE7       29.93R
EVANSVILLE     CLEAR     69  60  73 CALM      29.92S
INDIANAPOLIS   PTCLDY    68  55  63 E10       29.95S
LAFAYETTE      PTCLDY    64  55  72 E7        29.94R
MADISON        CLOUDY    62  53  72 SE7       29.88R
MILWAUKEE      CLOUDY    61  56  83 SE9       29.92F
$$





USA.gov is the U.S. government's official web portal to all federal, state and local government web resources and services.